Regional Weather Roundup
Issued by NWS

Home | Current Version | Previous Version | Text Only | Print | Product List | Glossary Off
Versions: 1 2 3 4 5 6 7 8 9 10 11 12 13 14 15 16 17 18 19 20 21 22 23 24 25 26 27 28 29 30 31 32 33 34 35 36 37 38 39 40 41 42 43 44 45 46 47 48 49 50

000
ASUS45 KTFX 241010
RWRMT
MONTANA REGIONAL WEATHER ROUNDUP
NATIONAL WEATHER SERVICE GREAT FALLS MT
300 AM MST TUE JAN 24 2017

NOTE: "FAIR" INDICATES FEW OR NO CLOUDS BELOW 12000 FEET WITH NO
SIGNIFICANT WEATHER AND/OR OBSTRUCTIONS TO VISIBILITY.

MTZ001>007-043-241100-
WEST OF THE DIVIDE

CITY           SKY/WX    TMP DP  RH WIND       PRES   REMARKS
KALISPELL      CLEAR      7   5  91 NW3       29.86R
MISSOULA       CLEAR     22  16  78 E5        29.85R
BUTTE          CLOUDY    14  10  84 CALM      29.73R
MULLAN PASS    CLOUDY    19  15  84 CALM      29.73R
ANACONDA         N/A     16  10  79 N5        29.77S
DEER LODGE       N/A     12   7  79 CALM      29.82R
EUREKA           N/A     10   9  92 CALM      29.91R
HAMILTON         N/A     21  19  93 CALM        N/A
PLAINS           N/A     25  21  84 N2        29.89
RONAN            N/A     14  10  84 CALM      29.88R
$$

MTZ008-052>055-241100-
SOUTHWEST MONTANA

CITY           SKY/WX    TMP DP  RH WIND       PRES   REMARKS
BOZEMAN        FLURRIES  21  17  84 W5        29.75R
DILLON         CLOUDY    19  13  77 E7        29.68R WCI  10
W YELLOWSTONE  LGT SNOW  18  14  86 N8        29.58R WCI   7
ENNIS          CLOUDY    18  14  86 N16G24    29.70R WCI   3
$$

MTZ009-010-012-014-046-048-049-054-241100-
EAST SLOPES AND CENTRAL MONTANA

CITY           SKY/WX    TMP DP  RH WIND       PRES   REMARKS
CUT BANK       PTCLDY     1  -2  87 NW5       29.81S
GREAT FALLS    CLOUDY    17  14  88 CALM      29.85S
MALMSTROM AFB  CLOUDY    17  16  93 S6        29.87S WCI   9
HELENA         CLEAR     16  11  80 W8        29.84R WCI   5
BOWMANS CRNR   MOCLDY    12  11  95 W5        29.80R
CHOTEAU          N/A      9   7  92 SW8       29.84F WCI  -4
CONRAD           N/A     -2  -6  82 NW2       29.86S
POWER          CLOUDY    17  15  94 SW7       29.83S WCI   7
RAYNESFORD     CLOUDY    17  15  93 NW5       29.84R
ULM            CLOUDY    18  16  93 MISG      29.86R
$$

MTZ011-013-016-021-045-047-050-051-241100-
NORTH CENTRAL MONTANA

CITY           SKY/WX    TMP DP  RH WIND       PRES   REMARKS
HAVRE          CLOUDY    21  18  88 SW12      29.87R WCI   9
LEWISTOWN      CLOUDY    16  14  92 W9        29.81R WCI   4
CHINOOK          N/A     21  19  93 NW7       29.88S WCI  13
DENTON         CLOUDY    18  16  95 S7G23     29.81S WCI   8
GEYSER         MOCLDY    15  12  90 W14       29.81S WCI   0
GRASS RANGE    MOCLDY    17  14  89 W15       29.78R WCI   2
JUDITH GAP     CLOUDY    15  13  91 N16       29.77R WCI  -1
ROY            FLURRIES  17  16  96 MISG      29.82R
STANFORD         N/A     12  11  93 NW6       29.80R WCI   3
WINIFRED       CLOUDY    17  16  96 W9        29.82S WCI   5
$$

MTZ017>020-022>027-061-062-241100-
NORTHEAST MONTANA

CITY           SKY/WX    TMP DP  RH WIND       PRES   REMARKS
GLASGOW        FLURRIES  20  16  84 W8        29.87S WCI  10
JORDAN           N/A     21  17  84 W6        29.86R WCI  13
SIDNEY         CLOUDY    22  17  81 NW6       29.88R WCI  14
WOLF POINT     CLOUDY    21  16  81 W3        29.89R
PLENTYWOOD       N/A     18  12  79 NW10      29.85R WCI   6
SCOBEY           N/A     17   9  71 W7        29.84  WCI   8
$$

MTZ028>42-056>058-241100-
SOUTHCENTRAL AND SOUTHEAST MONTANA

CITY           SKY/WX    TMP DP  RH WIND       PRES   REMARKS
BAKER          CLOUDY    21  19  92 NW8       29.82R FOG     WCI  11
BILLINGS       FLURRIES  23  22  96 NE9       29.80R WCI  13
LIVINGSTON     FLURRIES  21  17  84 E13       29.73R WCI   9
MILES CITY     CLOUDY    24  20  84 N8        29.84S WCI  15
BIG TIMBER     CLOUDY    21  21 100 E3        29.79R
EKALAKA          N/A     17  12  80 CALM      29.77
FORSYTH          N/A     21  21 100 CALM      29.84R
HARLOWTON      MOCLDY    16  15  93 N14       29.78R WCI   2
LAUREL           N/A     23  18  81 NE2       29.79
$$

REGIONAL REPORTS...DAKOTAS

CITY           SKY/WX    TMP DP  RH WIND       PRES   REMARKS
WILLISTON      CLOUDY    22  17  81 NW9       29.87R WCI  12
MINOT          CLOUDY    25  18  74 W15       29.82S WCI  13
DICKINSON      CLOUDY    20  17  88 NW7       29.80S WCI  11
BEACH          CLOUDY    19  19 100 NW6       29.86S FOG     WCI  11
CROSBY         CLOUDY    18  18 100 NW9       29.87R WCI   6
TIOGA          CLOUDY    18  18 100 NW13      29.84R WCI   4
WATFORD CITY   CLOUDY    21  19  93 W7        29.86R WCI  13
BISMARCK       CLOUDY    24  19  81 NW8       29.87R WCI  15
GRAND FORKS    CLOUDY    26  19  74 W12       29.86R WCI  16
FARGO          CLOUDY    32  26  78 W5        29.87R
BUFFALO SD       N/A     23  19  85 N12       29.72R WCI  12
RAPID CITY     CLOUDY    22  21  96 N20G26    29.72S FOG     WCI   7
$$

REGIONAL REPORTS...WYOMING/IDAHO/WASHINGTON

CITY           SKY/WX    TMP DP  RH WIND       PRES   REMARKS
GILLETTE       LGT SNOW  17  15  92 N10       29.68S FOG     WCI   5
SHERIDAN       LGT SNOW  21  18  88 VRB6      29.75S FOG     WCI  13
BUFFALO WY     LGT SNOW  19  14  81 N22G31    29.65F WCI   2
CODY           LGT SNOW  20  15  81 NW15      29.68R WCI   6
YELLOWSTONE LA   N/A     16  12  84 CALM      29.54R
IDAHO FALLS    LGT SNOW  25  23  92 W16       29.60R FOG     WCI  12
SALMON         CLOUDY     9   7  92 S3        29.73R
BOISE          CLOUDY    27  22  81 W10       29.72R WCI  17
SPOKANE        FOG       29  29 100 SW5       29.90R VSB 1/4
$$

REGIONAL REPORTS...ALBERTA

CITY           SKY/WX    TMP DP  RH WIND       PRES   REMARKS
EDMONTON       CLOUDY    18  10  73 S3        29.88F VSB 1
CALGARY        CLOUDY    21  19  93 E3        29.82R FOG
LETHBRIDGE     CLOUDY    12 N/A N/A E5        29.86R
MEDICINE HAT   CLOUDY    16  14  93 W5        29.90S
WATERTON GATE    N/A     18  14  86 SW6         N/A  WCI   9
MILK RIVER       N/A      5   3  92 CALM        N/A
ONEFOUR          N/A     16  16 100 NW15        N/A  WCI   1
$$

REGIONAL REPORTS...SASKATCHEWAN

CITY           SKY/WX    TMP DP  RH WIND       PRES   REMARKS
SWIFT CURRENT  FLURRIES  10   9  92 NW15      29.82S WCI  -6
REGINA         CLOUDY    14  10  85 NW10      29.85S WCI   1
SASKATOON      FLURRIES  10   7  85 NW7       29.91R WCI   0
CYPRESS HILLS    N/A     10   7  85 NW1         N/A
VAL MARIE        N/A     19  16  86 NW7         N/A  WCI  10
ROCKGLEN         N/A     14  12  92 NW6         N/A  WCI   5
ASSINIBOIA       N/A     10   9  92 CALM        N/A
$$



USA.gov is the U.S. government's official web portal to all federal, state and local government web resources and services.